Time,TemperatureF,DewpointF,PressureIn,WindDirection,WindDirectionDegrees,WindSpeedMPH,WindSpeedGustMPH,Humidity,HourlyPrecipIn,Conditions,Clouds,dailyrainin,SoftwareType,DateUTC
2013-08-03 00:02:00,67.0,64.0,29.89,West,267,1.0,6.0,90,0.00,,,0.10,,2013-08-03 04:02:00,
2013-08-03 00:22:00,66.0,63.0,29.89,West,264,0.0,3.0,90,0.00,,,0.10,,2013-08-03 04:22:00,
2013-08-03 00:33:00,66.0,63.0,29.89,SW,226,0.0,3.0,91,0.00,,,0.10,,2013-08-03 04:33:00,
2013-08-03 00:43:00,66.0,64.0,29.90,SW,235,1.0,3.0,92,0.00,,,0.10,,2013-08-03 04:43:00,
2013-08-03 01:02:00,65.0,63.0,29.91,WSW,250,0.0,3.0,92,0.00,,,0.10,,2013-08-03 05:02:00,
2013-08-03 01:32:00,65.0,63.0,29.91,West,270,0.0,3.0,93,0.00,,,0.10,,2013-08-03 05:32:00,
2013-08-03 01:42:00,65.0,63.0,29.91,West,259,0.0,2.0,93,0.00,,,0.10,,2013-08-03 05:42:00,
2013-08-03 01:52:00,65.0,63.0,29.91,WNW,297,0.0,1.0,93,0.00,,,0.10,,2013-08-03 05:52:00,
2013-08-03 02:02:00,65.0,63.0,29.91,WNW,297,0.0,1.0,93,0.00,,,0.10,,2013-08-03 06:02:00,
2013-08-03 02:12:00,65.0,63.0,29.92,WNW,298,0.0,0.0,93,0.00,,,0.10,,2013-08-03 06:12:00,
2013-08-03 02:32:00,65.0,63.0,29.92,South,177,0.0,0.0,93,0.00,,,0.10,,2013-08-03 06:32:00,
2013-08-03 02:42:00,65.0,63.0,29.92,WSW,255,0.0,0.0,94,0.00,,,0.10,,2013-08-03 06:42:00,
2013-08-03 02:52:00,65.0,63.0,29.92,West,264,0.0,0.0,94,0.00,,,0.10,,2013-08-03 06:52:00,
2013-08-03 03:02:00,65.0,63.0,29.92,West,264,0.0,0.0,94,0.00,,,0.10,,2013-08-03 07:02:00,
2013-08-03 03:12:00,64.0,62.0,29.92,WSW,250,0.0,0.0,94,0.00,,,0.10,,2013-08-03 07:12:00,
2013-08-03 03:22:00,64.0,62.0,29.91,SW,230,0.0,0.0,94,0.00,,,0.10,,2013-08-03 07:22:00,
2013-08-03 03:32:00,64.0,62.0,29.91,SW,230,0.0,0.0,94,0.00,,,0.10,,2013-08-03 07:32:00,
2013-08-03 03:43:00,64.0,62.0,29.91,SW,230,0.0,0.0,94,0.00,,,0.10,,2013-08-03 07:43:00,
2013-08-03 03:52:00,64.0,62.0,29.92,WSW,249,0.0,0.0,94,0.00,,,0.10,,2013-08-03 07:52:00,
2013-08-03 04:02:00,64.0,62.0,29.92,WSW,249,0.0,0.0,94,0.00,,,0.10,,2013-08-03 08:02:00,
2013-08-03 04:12:00,64.0,63.0,29.92,SSW,200,0.0,0.0,95,0.00,,,0.10,,2013-08-03 08:12:00,
2013-08-03 04:22:00,64.0,63.0,29.92,SW,231,0.0,0.0,95,0.00,,,0.10,,2013-08-03 08:22:00,
2013-08-03 04:32:00,64.0,63.0,29.92,SW,231,0.0,0.0,95,0.00,,,0.10,,2013-08-03 08:32:00,
2013-08-03 04:43:00,64.0,63.0,29.92,WSW,252,0.0,2.0,95,0.00,,,0.10,,2013-08-03 08:43:00,
2013-08-03 04:52:00,64.0,63.0,29.92,WSW,252,0.0,2.0,95,0.00,,,0.10,,2013-08-03 08:52:00,
2013-08-03 05:02:00,64.0,63.0,29.91,WSW,246,0.0,0.0,95,0.00,,,0.10,,2013-08-03 09:02:00,
2013-08-03 05:12:00,64.0,63.0,29.91,WSW,248,0.0,0.0,95,0.00,,,0.10,,2013-08-03 09:12:00,
2013-08-03 05:22:00,64.0,63.0,29.92,WSW,248,0.0,0.0,95,0.00,,,0.10,,2013-08-03 09:22:00,
2013-08-03 05:32:00,64.0,63.0,29.92,WSW,248,0.0,0.0,95,0.00,,,0.10,,2013-08-03 09:32:00,
2013-08-03 05:43:00,63.0,62.0,29.92,WSW,248,0.0,0.0,95,0.00,,,0.10,,2013-08-03 09:43:00,
2013-08-03 05:53:00,62.0,60.0,29.93,WSW,248,0.0,0.0,94,0.00,,,0.10,,2013-08-03 09:53:00,
2013-08-03 06:02:00,62.0,60.0,29.93,WSW,248,0.0,0.0,94,0.00,,,0.10,,2013-08-03 10:02:00,
2013-08-03 06:12:00,61.0,60.0,29.93,WSW,248,0.0,0.0,95,0.00,,,0.10,,2013-08-03 10:12:00,
2013-08-03 06:22:00,61.0,60.0,29.93,WSW,248,0.0,0.0,95,0.00,,,0.10,,2013-08-03 10:22:00,
2013-08-03 06:32:00,61.0,60.0,29.93,WSW,248,0.0,0.0,95,0.00,,,0.10,,2013-08-03 10:32:00,
2013-08-03 06:42:00,60.0,59.0,29.93,WSW,248,0.0,0.0,95,0.00,,,0.10,,2013-08-03 10:42:00,
2013-08-03 06:53:00,60.0,59.0,29.93,WSW,248,0.0,0.0,95,0.00,,,0.10,,2013-08-03 10:53:00,
2013-08-03 07:02:00,60.0,59.0,29.94,WSW,248,0.0,0.0,95,0.00,,,0.10,,2013-08-03 11:02:00,
2013-08-03 07:12:00,60.0,59.0,29.94,WSW,248,0.0,0.0,95,0.00,,,0.10,,2013-08-03 11:12:00,
2013-08-03 07:32:00,60.0,59.0,29.94,WSW,248,0.0,0.0,95,0.00,,,0.10,,2013-08-03 11:32:00,
2013-08-03 07:43:00,60.0,59.0,29.95,WSW,248,0.0,0.0,95,0.00,,,0.10,,2013-08-03 11:43:00,
2013-08-03 07:53:00,60.0,59.0,29.95,WSW,248,0.0,0.0,95,0.00,,,0.10,,2013-08-03 11:53:00,
2013-08-03 08:03:00,60.0,59.0,29.95,WSW,248,0.0,0.0,95,0.00,,,0.10,,2013-08-03 12:03:00,
2013-08-03 08:12:00,61.0,60.0,29.95,WSW,248,0.0,0.0,96,0.00,,,0.10,,2013-08-03 12:12:00,
2013-08-03 08:33:00,61.0,60.0,29.95,WSW,241,0.0,0.0,96,0.00,,,0.10,,2013-08-03 12:33:00,
2013-08-03 08:43:00,62.0,61.0,29.96,WSW,240,0.0,0.0,96,0.00,,,0.10,,2013-08-03 12:43:00,
2013-08-03 08:52:00,62.0,61.0,29.96,WSW,240,0.0,0.0,96,0.00,,,0.10,,2013-08-03 12:52:00,
2013-08-03 09:02:00,63.0,62.0,29.96,North,6,0.0,0.0,96,0.00,,,0.10,,2013-08-03 13:02:00,
2013-08-03 09:12:00,64.0,63.0,29.96,NNE,20,0.0,3.0,96,0.00,,,0.10,,2013-08-03 13:12:00,
2013-08-03 09:22:00,64.0,63.0,29.96,NNE,20,0.0,3.0,96,0.00,,,0.10,,2013-08-03 13:22:00,
2013-08-03 09:33:00,65.0,64.0,29.97,NNE,12,2.0,4.0,95,0.01,,,0.11,,2013-08-03 13:33:00,
2013-08-03 09:43:00,68.0,65.0,29.97,North,351,0.0,1.0,89,0.01,,,0.11,,2013-08-03 13:43:00,
2013-08-03 09:52:00,70.0,64.0,29.96,NE,41,0.0,2.0,81,0.01,,,0.11,,2013-08-03 13:52:00,
2013-08-03 10:02:00,70.0,64.0,29.96,NE,41,0.0,2.0,81,0.01,,,0.11,,2013-08-03 14:02:00,
2013-08-03 10:13:00,71.0,62.0,29.97,North,354,1.0,3.0,73,0.00,,,0.11,,2013-08-03 14:13:00,
2013-08-03 10:33:00,72.0,63.0,29.96,North,354,1.0,2.0,74,0.00,,,0.11,,2013-08-03 14:33:00,
2013-08-03 10:42:00,72.0,60.0,29.96,North,1,1.0,3.0,65,0.00,,,0.11,,2013-08-03 14:42:00,
2013-08-03 10:52:00,73.0,61.0,29.96,NW,311,1.0,3.0,65,0.00,,,0.11,,2013-08-03 14:52:00,
2013-08-03 11:02:00,73.0,61.0,29.96,NW,311,1.0,3.0,65,0.00,,,0.11,,2013-08-03 15:02:00,
2013-08-03 11:12:00,73.0,61.0,29.96,NNE,31,1.0,4.0,66,0.00,,,0.11,,2013-08-03 15:12:00,
2013-08-03 11:23:00,74.0,60.0,29.97,NW,315,0.0,2.0,62,0.00,,,0.10,,2013-08-03 15:23:00,
2013-08-03 11:32:00,74.0,60.0,29.97,NW,315,0.0,2.0,62,0.00,,,0.10,,2013-08-03 15:32:00,
2013-08-03 11:43:00,75.0,58.0,29.98,NE,49,0.0,3.0,56,0.00,,,0.10,,2013-08-03 15:43:00,
2013-08-03 11:53:00,77.0,60.0,29.97,WSW,243,0.0,2.0,55,0.00,,,0.10,,2013-08-03 15:53:00,
2013-08-03 12:02:00,77.0,60.0,29.97,WSW,243,0.0,2.0,55,0.00,,,0.10,,2013-08-03 16:02:00,
2013-08-03 12:12:00,77.0,60.0,29.97,NW,311,0.0,4.0,56,0.00,,,0.10,,2013-08-03 16:12:00,
2013-08-03 12:23:00,77.0,62.0,29.97,NNE,30,1.0,3.0,60,0.00,,,0.08,,2013-08-03 16:23:00,
2013-08-03 12:33:00,77.0,62.0,29.97,NNE,30,1.0,3.0,60,0.00,,,0.08,,2013-08-03 16:33:00,
2013-08-03 12:43:00,78.0,58.0,29.97,WNW,301,1.0,4.0,50,0.00,,,0.08,,2013-08-03 16:43:00,
2013-08-03 12:53:00,78.0,57.0,29.97,NNW,330,1.0,5.0,49,0.00,,,0.08,,2013-08-03 16:53:00,
2013-08-03 13:03:00,78.0,57.0,29.97,NNW,330,1.0,5.0,49,0.00,,,0.08,,2013-08-03 17:03:00,
2013-08-03 13:12:00,79.0,59.0,29.96,WNW,301,1.0,3.0,50,0.00,,,0.08,,2013-08-03 17:12:00,
2013-08-03 13:22:00,79.0,59.0,29.97,NW,311,2.0,5.0,50,0.00,,,0.06,,2013-08-03 17:22:00,
2013-08-03 13:32:00,79.0,59.0,29.97,NW,311,2.0,5.0,50,0.00,,,0.06,,2013-08-03 17:32:00,
2013-08-03 13:43:00,79.0,60.0,29.97,NW,311,1.0,4.0,52,0.00,,,0.06,,2013-08-03 17:43:00,
2013-08-03 13:52:00,79.0,58.0,29.97,WNW,301,2.0,4.0,48,0.00,,,0.06,,2013-08-03 17:52:00,
2013-08-03 14:02:00,79.0,58.0,29.97,WNW,301,2.0,4.0,48,0.00,,,0.06,,2013-08-03 18:02:00,
2013-08-03 14:12:00,79.0,55.0,29.97,WNW,286,1.0,5.0,44,0.00,,,0.06,,2013-08-03 18:12:00,
2013-08-03 14:22:00,79.0,55.0,29.97,WNW,286,1.0,5.0,44,0.00,,,0.06,,2013-08-03 18:22:00,
2013-08-03 14:32:00,79.0,55.0,29.97,WNW,286,1.0,5.0,44,0.00,,,0.06,,2013-08-03 18:32:00,
2013-08-03 15:03:00,80.0,57.0,29.97,NW,314,3.0,6.0,46,0.00,,,0.03,,2013-08-03 19:03:00,
2013-08-03 15:12:00,79.0,58.0,29.97,North,349,3.0,7.0,49,0.00,,,0.03,,2013-08-03 19:12:00,
2013-08-03 15:22:00,78.0,57.0,29.97,NNW,330,2.0,5.0,49,0.00,,,0.01,,2013-08-03 19:22:00,
2013-08-03 15:32:00,78.0,57.0,29.97,NNW,330,2.0,5.0,49,0.00,,,0.01,,2013-08-03 19:32:00,
2013-08-03 15:42:00,80.0,55.0,29.96,WNW,300,1.0,3.0,42,0.00,,,0.01,,2013-08-03 19:42:00,
2013-08-03 15:52:00,80.0,57.0,29.96,NW,313,1.0,4.0,46,0.00,,,0.01,,2013-08-03 19:52:00,
2013-08-03 16:02:00,80.0,57.0,29.96,NW,313,1.0,4.0,46,0.00,,,0.01,,2013-08-03 20:02:00,
2013-08-03 16:12:00,78.0,57.0,29.96,NW,319,2.0,6.0,48,0.00,,,0.01,,2013-08-03 20:12:00,
2013-08-03 16:22:00,79.0,56.0,29.95,NW,304,1.0,4.0,46,0.00,,,0.01,,2013-08-03 20:22:00,
2013-08-03 16:32:00,79.0,56.0,29.95,NW,304,1.0,4.0,46,0.00,,,0.01,,2013-08-03 20:32:00,
2013-08-03 16:42:00,78.0,57.0,29.96,NW,308,2.0,4.0,49,0.00,,,0.01,,2013-08-03 20:42:00,
2013-08-03 16:52:00,77.0,55.0,29.96,NW,314,2.0,4.0,46,0.00,,,0.01,,2013-08-03 20:52:00,
2013-08-03 17:02:00,77.0,55.0,29.96,NW,314,2.0,4.0,46,0.00,,,0.01,,2013-08-03 21:02:00,
2013-08-03 17:12:00,77.0,56.0,29.96,NNW,338,3.0,5.0,49,0.00,,,0.01,,2013-08-03 21:12:00,
2013-08-03 17:22:00,76.0,59.0,29.96,NW,323,2.0,4.0,56,0.00,,,0.01,,2013-08-03 21:22:00,
2013-08-03 17:32:00,76.0,59.0,29.96,NW,323,2.0,4.0,56,0.00,,,0.01,,2013-08-03 21:32:00,
2013-08-03 17:42:00,74.0,58.0,29.96,NW,312,1.0,3.0,57,0.00,,,0.01,,2013-08-03 21:42:00,
2013-08-03 17:52:00,76.0,56.0,29.96,NW,311,3.0,5.0,50,0.00,,,0.01,,2013-08-03 21:52:00,
2013-08-03 18:02:00,76.0,56.0,29.96,NW,311,3.0,5.0,50,0.00,,,0.01,,2013-08-03 22:02:00,
2013-08-03 18:12:00,76.0,58.0,29.96,NW,314,3.0,5.0,53,0.00,,,0.01,,2013-08-03 22:12:00,
2013-08-03 18:22:00,75.0,57.0,29.96,NW,318,2.0,4.0,53,0.00,,,0.01,,2013-08-03 22:22:00,
2013-08-03 18:33:00,75.0,57.0,29.96,NW,318,2.0,4.0,53,0.00,,,0.01,,2013-08-03 22:33:00,
2013-08-03 18:43:00,76.0,58.0,29.96,NW,322,2.0,4.0,54,0.00,,,0.01,,2013-08-03 22:43:00,
2013-08-03 18:52:00,75.0,57.0,29.96,NNW,333,1.0,4.0,54,0.00,,,0.01,,2013-08-03 22:52:00,
2013-08-03 19:02:00,75.0,57.0,29.96,NNW,333,1.0,4.0,54,0.00,,,0.01,,2013-08-03 23:02:00,
2013-08-03 19:12:00,75.0,56.0,29.96,NW,318,2.0,4.0,51,0.00,,,0.01,,2013-08-03 23:12:00,
2013-08-03 19:22:00,74.0,57.0,29.96,NW,325,1.0,3.0,55,0.00,,,0.01,,2013-08-03 23:22:00,
2013-08-03 19:32:00,74.0,57.0,29.96,NW,325,1.0,3.0,55,0.00,,,0.01,,2013-08-03 23:32:00,
2013-08-03 19:42:00,73.0,55.0,29.96,NW,314,1.0,2.0,54,0.00,,,0.01,,2013-08-03 23:42:00,
2013-08-03 19:52:00,73.0,56.0,29.96,NW,315,1.0,3.0,56,0.00,,,0.01,,2013-08-03 23:52:00,
2013-08-03 20:03:00,73.0,56.0,29.96,NW,315,1.0,3.0,56,0.00,,,0.01,,2013-08-04 00:03:00,
2013-08-03 20:12:00,72.0,55.0,29.97,NW,319,1.0,2.0,56,0.00,,,0.01,,2013-08-04 00:12:00,
2013-08-03 20:22:00,71.0,56.0,29.97,NW,319,0.0,1.0,59,0.00,,,0.01,,2013-08-04 00:22:00,
2013-08-03 20:32:00,71.0,56.0,29.97,NW,319,0.0,1.0,59,0.00,,,0.01,,2013-08-04 00:32:00,
2013-08-03 20:42:00,70.0,58.0,29.96,NW,319,0.0,1.0,66,0.00,,,0.01,,2013-08-04 00:42:00,
2013-08-03 20:53:00,70.0,58.0,29.96,NW,319,0.0,1.0,66,0.00,,,0.01,,2013-08-04 00:53:00,
2013-08-03 21:02:00,69.0,59.0,29.97,NW,319,0.0,0.0,70,0.00,,,0.01,,2013-08-04 01:02:00,
2013-08-03 21:12:00,69.0,59.0,29.97,NW,319,0.0,0.0,70,0.00,,,0.01,,2013-08-04 01:12:00,
2013-08-03 21:32:00,67.0,58.0,29.97,NW,321,0.0,0.0,74,0.00,,,0.01,,2013-08-04 01:32:00,
2013-08-03 21:42:00,67.0,58.0,29.97,NW,321,0.0,0.0,74,0.00,,,0.01,,2013-08-04 01:42:00,
2013-08-03 21:53:00,67.0,58.0,29.97,NW,321,0.0,0.0,74,0.00,,,0.01,,2013-08-04 01:53:00,
2013-08-03 22:02:00,64.0,56.0,29.98,NW,319,0.0,0.0,76,0.00,,,0.01,,2013-08-04 02:02:00,
2013-08-03 22:12:00,64.0,56.0,29.98,NW,319,0.0,0.0,76,0.00,,,0.01,,2013-08-04 02:12:00,
2013-08-03 22:22:00,64.0,56.0,29.98,NW,319,0.0,0.0,76,0.00,,,0.01,,2013-08-04 02:22:00,
2013-08-03 22:32:00,64.0,56.0,29.98,NW,319,0.0,0.0,76,0.00,,,0.01,,2013-08-04 02:32:00,
2013-08-03 22:42:00,63.0,56.0,29.98,NW,319,0.0,0.0,77,0.00,,,0.01,,2013-08-04 02:42:00,
2013-08-03 22:52:00,63.0,56.0,29.98,NW,319,0.0,0.0,77,0.00,,,0.01,,2013-08-04 02:52:00,
2013-08-03 23:02:00,62.0,55.0,29.99,North,5,0.0,1.0,78,0.00,,,0.01,,2013-08-04 03:02:00,
2013-08-03 23:12:00,62.0,55.0,29.99,North,5,0.0,1.0,78,0.00,,,0.01,,2013-08-04 03:12:00,
2013-08-03 23:22:00,61.0,55.0,29.99,North,4,0.0,1.0,82,0.00,,,0.01,,2013-08-04 03:22:00,
2013-08-03 23:32:00,61.0,55.0,29.99,North,4,0.0,1.0,82,0.00,,,0.01,,2013-08-04 03:32:00,
2013-08-03 23:42:00,61.0,55.0,29.99,North,4,0.0,1.0,82,0.00,,,0.01,,2013-08-04 03:42:00,
2013-08-03 23:52:00,61.0,55.0,29.99,North,4,0.0,1.0,82,0.00,,,0.01,,2013-08-04 03:52:00,